| time (UTC) | temp F | wind direction | speed knots | gust knots | rain 1hr in | rain 24hr in | rain mn in | humidity % | barometer mb |
| 20260902204501 | 74 | 73 | 1.7 | 5.2 | 0.00 | 0.00 | 0.00 | 63 | 1016.7 |
| 20260902204001 | 74 | 112 | 0.0 | 4.3 | 0.00 | 0.00 | 0.00 | 63 | 1016.7 |
| 20260902203501 | 74 | 115 | 2.6 | 4.3 | 0.00 | 0.00 | 0.00 | 62 | 1016.6 |
| 20260902203001 | 74 | 81 | 0.0 | 2.6 | 0.00 | 0.00 | 0.00 | 61 | 1016.7 |
| 20260902202501 | 74 | 127 | 1.7 | 5.2 | 0.00 | 0.00 | 0.00 | 60 | 1016.7 |
| 20260902202001 | 74 | 100 | 1.7 | 4.3 | 0.00 | 0.00 | 0.00 | 59 | 1016.7 |
| 20260902201500 | 74 | 82 | 3.5 | 5.2 | 0.00 | 0.00 | 0.00 | 56 | 1016.7 |
| 20260902201000 | 74 | 64 | 2.6 | 5.2 | 0.00 | 0.00 | 0.00 | 55 | 1016.6 |
| 20260902200501 | 74 | 8 | 1.7 | 4.3 | 0.00 | 0.00 | 0.00 | 53 | 1016.6 |
| 20260902200001 | 73 | 347 | 1.7 | 4.3 | 0.00 | 0.00 | 0.00 | 51 | 1016.6 |
| 20260902195501 | 73 | 26 | 0.0 | 0.9 | 0.00 | 0.00 | 0.00 | 49 | 1016.6 |
| 20260902195000 | 73 | 356 | 2.6 | 2.6 | 0.00 | 0.00 | 0.00 | 50 | 1016.5 |
| 20260902194501 | 73 | 354 | 0.9 | 2.6 | 0.00 | 0.00 | 0.00 | 50 | 1016.5 |
| 20260902194001 | 73 | 316 | 0.9 | 1.7 | 0.00 | 0.00 | 0.00 | 50 | 1016.4 |
| 20260902193501 | 74 | 316 | 0.0 | 0.9 | 0.00 | 0.00 | 0.00 | 49 | 1016.4 |
| 20260902193001 | 74 | 282 | 0.0 | 0.9 | 0.00 | 0.00 | 0.00 | 49 | 1016.4 |
| 20260902192501 | 74 | 282 | 1.7 | 2.6 | 0.00 | 0.00 | 0.00 | 48 | 1016.5 |
| 20260902192001 | 74 | 303 | 0.9 | 1.7 | 0.00 | 0.00 | 0.00 | 48 | 1016.5 |
| 20260902191500 | 74 | 354 | 0.0 | 0.9 | 0.00 | 0.00 | 0.00 | 47 | 1016.4 |
| 20260902191001 | 75 | 338 | 0.9 | 1.7 | 0.00 | 0.00 | 0.00 | 47 | 1016.4 |
| 20260902190501 | 75 | 346 | 0.9 | 1.7 | 0.00 | 0.00 | 0.00 | 47 | 1016.4 |
| 20260902190000 | 75 | 4 | 0.9 | 0.9 | 0.00 | 0.00 | 0.00 | 47 | 1016.3 |
| 20260902185501 | 75 | 19 | 0.0 | 1.7 | 0.00 | 0.00 | 0.00 | 46 | 1016.3 |
| 20260902185001 | 76 | 344 | 0.0 | 0.9 | 0.00 | 0.00 | 0.00 | 46 | 1016.3 |
| 20260902184501 | 76 | 355 | 1.7 | 1.7 | 0.00 | 0.00 | 0.00 | 45 | 1016.3 |
| 20260902184000 | 76 | 39 | 0.0 | 0.9 | 0.00 | 0.00 | 0.00 | 46 | 1016.3 |
| 20260902183501 | 76 | 12 | 0.0 | 0.9 | 0.00 | 0.00 | 0.00 | 45 | 1016.3 |
| 20260902183000 | 76 | 52 | 0.0 | 4.3 | 0.00 | 0.00 | 0.00 | 46 | 1016.2 |
| 20260902182501 | 75 | 69 | 0.0 | 0.9 | 0.00 | 0.00 | 0.00 | 46 | 1016.2 |
| 20260902182001 | 76 | 62 | 0.9 | 0.9 | 0.00 | 0.00 | 0.00 | 47 | 1016.2 |
| 20260902181501 | 76 | 74 | 0.0 | 1.7 | 0.00 | 0.00 | 0.00 | 47 | 1016.1 |
| 20260902181001 | 76 | 56 | 0.0 | 0.9 | 0.00 | 0.00 | 0.00 | 46 | 1016.1 |
| 20260902180501 | 77 | 64 | 0.0 | 0.9 | 0.00 | 0.00 | 0.00 | 46 | 1016.0 |
| 20260902180001 | 77 | 64 | 0.0 | 0.9 | 0.00 | 0.00 | 0.00 | 46 | 1016.0 |
| 20260902175501 | 78 | 64 | 0.0 | 0.9 | 0.00 | 0.00 | 0.00 | 46 | 1015.8 |
| 20260902175001 | 78 | 64 | 0.0 | 0.9 | 0.00 | 0.00 | 0.00 | 44 | 1015.7 |
| 20260902174501 | 79 | 64 | 0.0 | 0.0 | 0.00 | 0.00 | 0.00 | 44 | 1015.6 |
| 20260902174000 | 79 | 66 | 0.0 | 1.7 | 0.00 | 0.00 | 0.00 | 44 | 1015.6 |
| 20260902173500 | 80 | 68 | 0.0 | 0.0 | 0.00 | 0.00 | 0.00 | 42 | 1015.5 |
| 20260902173001 | 81 | 68 | 0.0 | 0.9 | 0.00 | 0.00 | 0.00 | 41 | 1015.4 |
| 20260902172501 | 81 | 80 | 0.0 | 1.7 | 0.00 | 0.00 | 0.00 | 40 | 1015.3 |
| 20260902172001 | 81 | 76 | 0.0 | 1.7 | 0.00 | 0.00 | 0.00 | 41 | 1015.3 |
| 20260902171500 | 82 | 75 | 0.9 | 1.7 | 0.00 | 0.00 | 0.00 | 39 | 1015.2 |
| 20260902171001 | 83 | 71 | 0.9 | 0.9 | 0.00 | 0.00 | 0.00 | 39 | 1015.1 |
| 20260902170501 | 83 | 68 | 0.9 | 0.9 | 0.00 | 0.00 | 0.00 | 40 | 1015.2 |
| 20260902170000 | 84 | 343 | 0.0 | 1.7 | 0.00 | 0.00 | 0.00 | 38 | 1015.0 |
| 20260902165501 | 84 | 340 | 0.0 | 1.7 | 0.00 | 0.00 | 0.00 | 38 | 1015.0 |
| 20260902165001 | 85 | 341 | 0.9 | 1.7 | 0.00 | 0.00 | 0.00 | 37 | 1015.0 |
| 20260902164501 | 85 | 353 | 0.9 | 0.9 | 0.00 | 0.00 | 0.00 | 37 | 1014.9 |
| 20260902155500 | 93 | 47 | 0.0 | 0.9 | 0.00 | 0.00 | 0.00 | 30 | 1015.1 |
| 20260902155001 | 93 | 335 | 0.9 | 0.9 | 0.00 | 0.00 | 0.00 | 29 | 1015.1 |
| 20260902154501 | 94 | 341 | 0.0 | 0.0 | 0.00 | 0.00 | 0.00 | 32 | 1015.1 |
| 20260902154000 | 94 | 64 | 0.9 | 0.9 | 0.00 | 0.00 | 0.00 | 30 | 1015.1 |
| 20260902153500 | 94 | 332 | 0.0 | 1.7 | 0.00 | 0.00 | 0.00 | 32 | 1015.1 |
| 20260902153001 | 94 | 342 | 1.7 | 1.7 | 0.00 | 0.00 | 0.00 | 30 | 1015.1 |
| 20260902152500 | 94 | 326 | 2.6 | 5.2 | 0.00 | 0.00 | 0.00 | 32 | 1015.0 |
| 20260902152001 | 94 | 359 | 2.6 | 4.3 | 0.00 | 0.00 | 0.00 | 32 | 1015.1 |
| 20260902151500 | 94 | 67 | 2.6 | 2.6 | 0.00 | 0.00 | 0.00 | 37 | 1015.1 |
| 20260902151000 | 94 | 87 | 1.7 | 2.6 | 0.00 | 0.00 | 0.00 | 36 | 1015.1 |
| 20260902150500 | 94 | 358 | 0.9 | 4.3 | 0.00 | 0.00 | 0.00 | 35 | 1015.2 |
| 20260902150000 | 94 | 105 | 1.7 | 2.6 | 0.00 | 0.00 | 0.00 | 34 | 1015.2 |
| 20260902145501 | 95 | 359 | 4.3 | 5.2 | 0.00 | 0.00 | 0.00 | 35 | 1015.2 |
| 20260902145000 | 94 | 163 | 0.0 | 2.6 | 0.00 | 0.00 | 0.00 | 35 | 1015.2 |
| 20260902144500 | 94 | 200 | 2.6 | 4.3 | 0.00 | 0.00 | 0.00 | 35 | 1015.2 |
| 20260902144000 | 94 | 292 | 0.0 | 2.6 | 0.00 | 0.00 | 0.00 | 34 | 1015.3 |
| 20260902143500 | 94 | 308 | 2.6 | 4.3 | 0.00 | 0.00 | 0.00 | 36 | 1015.3 |
| 20260902143001 | 94 | 343 | 1.7 | 2.6 | 0.00 | 0.00 | 0.00 | 37 | 1015.3 |
| 20260902142500 | 94 | 42 | 0.0 | 7.8 | 0.00 | 0.00 | 0.00 | 37 | 1015.4 |
| 20260902142000 | 94 | 21 | 4.3 | 7.8 | 0.00 | 0.00 | 0.00 | 37 | 1015.5 |
| 20260902141500 | 95 | 324 | 2.6 | 5.2 | 0.00 | 0.00 | 0.00 | 36 | 1015.6 |
| 20260902141000 | 95 | 336 | 4.3 | 5.2 | 0.00 | 0.00 | 0.00 | 37 | 1015.6 |
| 20260902140500 | 95 | 107 | 0.9 | 5.2 | 0.00 | 0.00 | 0.00 | 38 | 1015.7 |
| 20260902140000 | 94 | 128 | 1.7 | 2.6 | 0.00 | 0.00 | 0.00 | 38 | 1015.6 |
| 20260902135500 | 94 | 135 | 0.9 | 1.7 | 0.00 | 0.00 | 0.00 | 37 | 1015.7 |
| 20260902135000 | 93 | 129 | 1.7 | 4.3 | 0.00 | 0.00 | 0.00 | 38 | 1015.7 |
| 20260902134500 | 93 | 5 | 0.9 | 2.6 | 0.00 | 0.00 | 0.00 | 38 | 1015.8 |
| 20260902134000 | 93 | 323 | 0.9 | 2.6 | 0.00 | 0.00 | 0.00 | 38 | 1015.9 |
| 20260902133500 | 94 | 24 | 0.9 | 1.7 | 0.00 | 0.00 | 0.00 | 37 | 1016.1 |
| 20260902133000 | 94 | 293 | 2.6 | 4.3 | 0.00 | 0.00 | 0.00 | 38 | 1016.1 |
| 20260902132500 | 94 | 169 | 0.0 | 2.6 | 0.00 | 0.00 | 0.00 | 39 | 1016.2 |
| 20260902132000 | 94 | 175 | 0.0 | 1.7 | 0.00 | 0.00 | 0.00 | 38 | 1016.2 |
| 20260902131500 | 94 | 185 | 2.6 | 4.3 | 0.00 | 0.00 | 0.00 | 40 | 1016.2 |
| 20260902131000 | 94 | 157 | 1.7 | 1.7 | 0.00 | 0.00 | 0.00 | 38 | 1016.3 |
| 20260902130500 | 94 | 120 | 0.9 | 2.6 | 0.00 | 0.00 | 0.00 | 37 | 1016.4 |
| 20260902130001 | 94 | 335 | 5.2 | 7.8 | 0.00 | 0.00 | 0.00 | 37 | 1016.5 |
| 20260902125500 | 94 | 343 | 3.5 | 4.3 | 0.00 | 0.00 | 0.00 | 37 | 1016.5 |
| 20260902125000 | 94 | 52 | 0.9 | 4.3 | 0.00 | 0.00 | 0.00 | 38 | 1016.6 |
| 20260902124500 | 94 | 48 | 2.6 | 7.8 | 0.00 | 0.00 | 0.00 | 37 | 1016.6 |
| 20260902124000 | 94 | 185 | 0.9 | 4.3 | 0.00 | 0.00 | 0.00 | 39 | 1016.7 |
| 20260902123500 | 93 | 292 | 0.9 | 0.9 | 0.00 | 0.00 | 0.00 | 39 | 1016.8 |
| 20260902123000 | 93 | 285 | 1.7 | 2.6 | 0.00 | 0.00 | 0.00 | 39 | 1016.9 |
| 20260902122500 | 93 | 275 | 3.5 | 7.0 | 0.00 | 0.00 | 0.00 | 40 | 1016.9 |
| 20260902122000 | 93 | 328 | 3.5 | 7.8 | 0.00 | 0.00 | 0.00 | 40 | 1016.9 |
| 20260902121500 | 92 | 253 | 3.5 | 5.2 | 0.00 | 0.00 | 0.00 | 41 | 1017.0 |
| 20260902121001 | 93 | 198 | 3.5 | 5.2 | 0.00 | 0.00 | 0.00 | 43 | 1017.0 |
| 20260902120500 | 93 | 42 | 0.9 | 1.7 | 0.00 | 0.00 | 0.00 | 42 | 1017.2 |
| 20260902120000 | 92 | 279 | 3.5 | 7.0 | 0.00 | 0.00 | 0.00 | 42 | 1017.2 |
| 20260902115500 | 92 | 345 | 0.9 | 4.3 | 0.00 | 0.00 | 0.00 | 43 | 1017.3 |
| 20260902115000 | 92 | 265 | 1.7 | 5.2 | 0.00 | 0.00 | 0.00 | 44 | 1017.3 |
| 20260902114500 | 92 | 218 | 2.6 | 4.3 | 0.00 | 0.00 | 0.00 | 43 | 1017.4 |
| 20260902114000 | 92 | 216 | 1.7 | 4.3 | 0.00 | 0.00 | 0.00 | 44 | 1017.5 |
| 20260902113500 | 91 | 18 | 0.9 | 6.1 | 0.00 | 0.00 | 0.00 | 41 | 1017.6 |
| 20260902113000 | 91 | 277 | 6.1 | 7.0 | 0.00 | 0.00 | 0.00 | 44 | 1017.6 |
| 20260902112500 | 91 | 284 | 7.8 | 8.7 | 0.00 | 0.00 | 0.00 | 45 | 1017.7 |
| 20260902112000 | 90 | 8 | 1.7 | 4.3 | 0.00 | 0.00 | 0.00 | 45 | 1017.7 |
| 20260902111500 | 90 | 206 | 1.7 | 5.2 | 0.00 | 0.00 | 0.00 | 46 | 1017.8 |
| 20260902111000 | 89 | 215 | 1.7 | 1.7 | 0.00 | 0.00 | 0.00 | 49 | 1017.8 |
| 20260902110500 | 89 | 117 | 2.6 | 2.6 | 0.00 | 0.00 | 0.00 | 49 | 1017.8 |
| 20260902110000 | 89 | 97 | 1.7 | 2.6 | 0.00 | 0.00 | 0.00 | 47 | 1017.9 |
| 20260902105500 | 89 | 94 | 3.5 | 6.1 | 0.00 | 0.00 | 0.00 | 48 | 1017.9 |
| 20260902105000 | 89 | 106 | 3.5 | 5.2 | 0.00 | 0.00 | 0.00 | 48 | 1018.0 |
| 20260902104500 | 89 | 88 | 1.7 | 1.7 | 0.00 | 0.00 | 0.00 | 48 | 1018.1 |
| 20260902104000 | 89 | 32 | 0.9 | 4.3 | 0.00 | 0.00 | 0.00 | 48 | 1018.1 |
| 20260902103500 | 89 | 3 | 4.3 | 5.2 | 0.00 | 0.00 | 0.00 | 49 | 1018.1 |
| 20260902103000 | 89 | 305 | 0.9 | 4.3 | 0.00 | 0.00 | 0.00 | 49 | 1018.2 |
| 20260902102500 | 89 | 143 | 4.3 | 6.1 | 0.00 | 0.00 | 0.00 | 49 | 1018.2 |
| 20260902102000 | 88 | 296 | 0.9 | 1.7 | 0.00 | 0.00 | 0.00 | 50 | 1018.3 |
| 20260902101500 | 88 | 324 | 4.3 | 5.2 | 0.00 | 0.00 | 0.00 | 50 | 1018.3 |
| 20260902101000 | 88 | 318 | 2.6 | 6.1 | 0.00 | 0.00 | 0.00 | 49 | 1018.4 |
| 20260902100500 | 88 | 342 | 1.7 | 2.6 | 0.00 | 0.00 | 0.00 | 50 | 1018.5 |
| 20260902100000 | 88 | 40 | 0.9 | 2.6 | 0.00 | 0.00 | 0.00 | 50 | 1018.5 |
| 20260902095500 | 88 | 121 | 1.7 | 5.2 | 0.00 | 0.00 | 0.00 | 50 | 1018.5 |
| 20260902095000 | 88 | 208 | 1.7 | 4.3 | 0.00 | 0.00 | 0.00 | 51 | 1018.6 |
| 20260902094500 | 87 | 346 | 2.6 | 2.6 | 0.00 | 0.00 | 0.00 | 51 | 1018.7 |
| 20260902094001 | 87 | 34 | 0.9 | 4.3 | 0.00 | 0.00 | 0.00 | 51 | 1018.8 |
| 20260902093500 | 87 | 290 | 0.9 | 1.7 | 0.00 | 0.00 | 0.00 | 52 | 1018.8 |
| 20260902093000 | 86 | 336 | 4.3 | 5.2 | 0.00 | 0.00 | 0.00 | 52 | 1018.8 |
| 20260902092501 | 86 | 118 | 2.6 | 4.3 | 0.00 | 0.00 | 0.00 | 52 | 1018.8 |
| 20260902092000 | 86 | 148 | 0.9 | 2.6 | 0.00 | 0.00 | 0.00 | 54 | 1018.8 |
| 20260902091500 | 85 | 136 | 0.9 | 2.6 | 0.00 | 0.00 | 0.00 | 53 | 1018.8 |
| 20260902091000 | 85 | 328 | 2.6 | 2.6 | 0.00 | 0.00 | 0.00 | 52 | 1018.7 |
| 20260902090500 | 86 | 63 | 1.7 | 6.1 | 0.00 | 0.00 | 0.00 | 52 | 1018.8 |
| 20260902090000 | 86 | 96 | 1.7 | 2.6 | 0.00 | 0.00 | 0.00 | 54 | 1018.8 |
| 20260902085501 | 86 | 45 | 0.9 | 5.2 | 0.00 | 0.00 | 0.00 | 54 | 1018.8 |
| 20260902085000 | 86 | 110 | 3.5 | 4.3 | 0.00 | 0.00 | 0.00 | 55 | 1018.8 |
| 20260902084500 | 85 | 67 | 2.6 | 2.6 | 0.00 | 0.00 | 0.00 | 56 | 1018.8 |
| 20260902084000 | 85 | 101 | 2.6 | 5.2 | 0.00 | 0.00 | 0.00 | 56 | 1018.7 |
| 20260902083500 | 84 | 157 | 0.0 | 0.9 | 0.00 | 0.00 | 0.00 | 58 | 1018.8 |
| 20260902083000 | 84 | 107 | 2.6 | 6.1 | 0.00 | 0.00 | 0.00 | 57 | 1018.8 |
| 20260902082500 | 84 | 131 | 4.3 | 6.1 | 0.00 | 0.00 | 0.00 | 57 | 1018.8 |
| 20260902082000 | 84 | 181 | 0.9 | 2.6 | 0.00 | 0.00 | 0.00 | 58 | 1018.8 |
| 20260902081500 | 84 | 130 | 3.5 | 7.0 | 0.00 | 0.00 | 0.00 | 58 | 1018.8 |
| 20260902081000 | 84 | 155 | 2.6 | 2.6 | 0.00 | 0.00 | 0.00 | 57 | 1018.8 |
| 20260902080500 | 83 | 79 | 0.9 | 4.3 | 0.00 | 0.00 | 0.00 | 58 | 1018.8 |
| 20260902080000 | 83 | 75 | 0.9 | 2.6 | 0.00 | 0.00 | 0.00 | 60 | 1018.8 |
| 20260902075500 | 82 | 132 | 0.9 | 6.1 | 0.00 | 0.00 | 0.00 | 60 | 1018.8 |
| 20260902075000 | 82 | 120 | 4.3 | 5.2 | 0.00 | 0.00 | 0.00 | 61 | 1018.8 |
| 20260902074500 | 81 | 116 | 4.3 | 7.8 | 0.00 | 0.00 | 0.00 | 61 | 1018.8 |
| 20260902074000 | 81 | 98 | 0.9 | 1.7 | 0.00 | 0.00 | 0.00 | 63 | 1018.8 |
| 20260902073500 | 80 | 127 | 4.3 | 5.2 | 0.00 | 0.00 | 0.00 | 63 | 1018.8 |
| 20260902073000 | 80 | 96 | 2.6 | 4.3 | 0.00 | 0.00 | 0.00 | 64 | 1018.8 |
| 20260902072500 | 79 | 88 | 0.9 | 5.2 | 0.00 | 0.00 | 0.00 | 64 | 1018.8 |
| 20260902072000 | 79 | 66 | 1.7 | 7.0 | 0.00 | 0.00 | 0.00 | 64 | 1018.8 |
| 20260902071500 | 79 | 109 | 3.5 | 6.1 | 0.00 | 0.00 | 0.00 | 65 | 1018.8 |
| 20260902071000 | 78 | 94 | 1.7 | 4.3 | 0.00 | 0.00 | 0.00 | 66 | 1018.8 |
| 20260902070500 | 78 | 100 | 0.9 | 2.6 | 0.00 | 0.00 | 0.00 | 67 | 1018.9 |
| 20260902070000 | 77 | 41 | 0.9 | 2.6 | 0.00 | 0.00 | 0.00 | 68 | 1018.8 |
| 20260902065500 | 77 | 120 | 1.7 | 2.6 | 0.00 | 0.00 | 0.00 | 68 | 1018.8 |
| 20260902065000 | 76 | 124 | 1.7 | 4.3 | 0.00 | 0.00 | 0.00 | 69 | 1018.7 |
| 20260902064500 | 76 | 126 | 4.3 | 5.2 | 0.00 | 0.00 | 0.00 | 69 | 1018.8 |
| 20260902064000 | 76 | 124 | 2.6 | 6.1 | 0.00 | 0.00 | 0.00 | 70 | 1018.7 |
| 20260902063500 | 75 | 122 | 1.7 | 2.6 | 0.00 | 0.00 | 0.00 | 71 | 1018.6 |
| 20260902063000 | 75 | 95 | 1.7 | 5.2 | 0.00 | 0.00 | 0.00 | 71 | 1018.6 |
| 20260902062500 | 75 | 111 | 3.5 | 6.1 | 0.00 | 0.00 | 0.00 | 71 | 1018.6 |
| 20260902062000 | 74 | 168 | 1.7 | 4.3 | 0.00 | 0.00 | 0.00 | 72 | 1018.4 |
| 20260902061500 | 74 | 36 | 0.9 | 2.6 | 0.00 | 0.00 | 0.00 | 72 | 1018.4 |
| 20260902061000 | 74 | 126 | 2.6 | 7.0 | 0.00 | 0.00 | 0.00 | 73 | 1018.4 |
| 20260902060500 | 73 | 39 | 0.9 | 5.2 | 0.00 | 0.00 | 0.00 | 74 | 1018.5 |
| 20260902060000 | 73 | 89 | 2.6 | 6.1 | 0.00 | 0.00 | 0.00 | 75 | 1018.4 |
| 20260902055500 | 73 | 118 | 0.9 | 5.2 | 0.00 | 0.00 | 0.00 | 76 | 1018.5 |
| 20260902055000 | 72 | 96 | 0.9 | 2.6 | 0.00 | 0.00 | 0.00 | 77 | 1018.5 |
| 20260902054500 | 71 | 1 | 0.0 | 1.7 | 0.00 | 0.00 | 0.00 | 79 | 1018.5 |
| 20260902054000 | 70 | 18 | 0.9 | 2.6 | 0.00 | 0.00 | 0.00 | 80 | 1018.6 |
| 20260902053500 | 69 | 16 | 0.0 | 0.9 | 0.00 | 0.00 | 0.00 | 81 | 1018.6 |
| 20260902053000 | 69 | 34 | 0.0 | 0.9 | 0.00 | 0.00 | 0.00 | 82 | 1018.6 |
| 20260902052500 | 68 | 34 | 0.9 | 1.7 | 0.00 | 0.00 | 0.00 | 83 | 1018.5 |
| 20260902052000 | 68 | 360 | 1.7 | 1.7 | 0.00 | 0.00 | 0.00 | 84 | 1018.5 |
| 20260902051500 | 67 | 323 | 0.9 | 2.6 | 0.00 | 0.00 | 0.00 | 84 | 1018.5 |
| 20260902051000 | 67 | 4 | 0.0 | 1.7 | 0.00 | 0.00 | 0.00 | 85 | 1018.5 |
| 20260902050501 | 66 | 328 | 0.9 | 2.6 | 0.00 | 0.00 | 0.00 | 85 | 1018.5 |
| 20260902050000 | 66 | 340 | 0.9 | 1.7 | 0.00 | 0.00 | 0.00 | 85 | 1018.5 |
| 20260902045500 | 66 | 302 | 1.7 | 1.7 | 0.00 | 0.00 | 0.00 | 86 | 1018.3 |
| 20260902045000 | 65 | 3 | 0.9 | 1.7 | 0.00 | 0.00 | 0.00 | 86 | 1018.3 |
| 20260902044500 | 65 | 4 | 0.9 | 1.7 | 0.00 | 0.00 | 0.00 | 86 | 1018.3 |
| 20260902044000 | 65 | 4 | 1.7 | 2.6 | 0.00 | 0.00 | 0.00 | 86 | 1018.3 |
| 20260902043500 | 65 | 341 | 0.0 | 0.9 | 0.00 | 0.00 | 0.00 | 86 | 1018.2 |
| 20260902043000 | 65 | 341 | 0.0 | 1.7 | 0.00 | 0.00 | 0.00 | 86 | 1018.2 |
| 20260902042500 | 65 | 349 | 0.0 | 0.0 | 0.00 | 0.00 | 0.00 | 86 | 1018.1 |
| 20260902042000 | 65 | 349 | 0.0 | 0.9 | 0.00 | 0.00 | 0.00 | 86 | 1018.2 |
| 20260902041500 | 65 | 354 | 0.0 | 0.9 | 0.00 | 0.00 | 0.00 | 86 | 1018.2 |
| 20260902041000 | 65 | 355 | 1.7 | 2.6 | 0.00 | 0.00 | 0.00 | 86 | 1018.2 |
| 20260902040500 | 65 | 342 | 1.7 | 2.6 | 0.00 | 0.00 | 0.00 | 86 | 1018.2 |
| 20260902040000 | 65 | 303 | 0.9 | 1.7 | 0.00 | 0.00 | 0.00 | 86 | 1018.2 |
| 20260902035500 | 65 | 343 | 0.9 | 1.7 | 0.00 | 0.00 | 0.00 | 86 | 1018.2 |
| 20260902035000 | 65 | 1 | 0.0 | 0.9 | 0.00 | 0.00 | 0.00 | 86 | 1018.1 |
| 20260902034500 | 65 | 325 | 2.6 | 4.3 | 0.00 | 0.00 | 0.00 | 86 | 1018.0 |
| 20260902034000 | 65 | 352 | 0.9 | 1.7 | 0.00 | 0.00 | 0.00 | 85 | 1018.0 |
| 20260902033500 | 65 | 2 | 1.7 | 2.6 | 0.00 | 0.00 | 0.00 | 85 | 1018.0 |
| 20260902033000 | 65 | 322 | 0.9 | 2.6 | 0.00 | 0.00 | 0.00 | 85 | 1018.0 |
| 20260902032500 | 65 | 354 | 1.7 | 1.7 | 0.00 | 0.00 | 0.00 | 85 | 1017.9 |
| 20260902032000 | 65 | 352 | 0.0 | 2.6 | 0.00 | 0.00 | 0.00 | 85 | 1017.9 |
| 20260902031500 | 65 | 335 | 0.9 | 0.9 | 0.00 | 0.00 | 0.00 | 85 | 1017.9 |
| 20260902031000 | 66 | 313 | 0.9 | 1.7 | 0.00 | 0.00 | 0.00 | 85 | 1017.9 |
| 20260902030500 | 66 | 348 | 0.9 | 2.6 | 0.00 | 0.00 | 0.00 | 84 | 1017.8 |
| 20260902030000 | 66 | 326 | 0.0 | 4.3 | 0.00 | 0.00 | 0.00 | 84 | 1017.9 |
| 20260902025500 | 66 | 355 | 2.6 | 2.6 | 0.00 | 0.00 | 0.00 | 84 | 1017.9 |
| 20260902025000 | 66 | 22 | 4.3 | 6.1 | 0.00 | 0.00 | 0.00 | 84 | 1017.9 |
| 20260902024500 | 66 | 288 | 2.6 | 5.2 | 0.00 | 0.00 | 0.00 | 84 | 1017.9 |
| 20260902024000 | 66 | 310 | 0.9 | 1.7 | 0.00 | 0.00 | 0.00 | 83 | 1017.9 |
| 20260902023500 | 67 | 354 | 0.9 | 2.6 | 0.00 | 0.00 | 0.00 | 83 | 1018.0 |
| 20260902023000 | 67 | 336 | 0.9 | 5.2 | 0.00 | 0.00 | 0.00 | 83 | 1017.9 |
| 20260902022500 | 67 | 332 | 2.6 | 2.6 | 0.00 | 0.00 | 0.00 | 83 | 1017.8 |
| 20260902022000 | 67 | 303 | 2.6 | 5.2 | 0.00 | 0.00 | 0.00 | 82 | 1017.8 |
| 20260902021500 | 67 | 334 | 2.6 | 5.2 | 0.00 | 0.00 | 0.00 | 82 | 1017.8 |
| 20260902021000 | 67 | 325 | 2.6 | 2.6 | 0.00 | 0.00 | 0.00 | 82 | 1017.8 |
| 20260902020500 | 67 | 289 | 1.7 | 6.1 | 0.00 | 0.00 | 0.00 | 82 | 1017.8 |
| 20260902020000 | 67 | 340 | 2.6 | 5.2 | 0.00 | 0.00 | 0.00 | 82 | 1017.7 |
| 20260902015500 | 67 | 319 | 1.7 | 2.6 | 0.00 | 0.00 | 0.00 | 82 | 1017.6 |
| 20260902015000 | 68 | 303 | 0.9 | 1.7 | 0.00 | 0.00 | 0.00 | 82 | 1017.5 |
| 20260902014500 | 68 | 329 | 0.9 | 4.3 | 0.00 | 0.00 | 0.00 | 81 | 1017.5 |
| 20260902014000 | 68 | 296 | 1.7 | 1.7 | 0.00 | 0.00 | 0.00 | 81 | 1017.5 |
| 20260902013500 | 68 | 334 | 0.9 | 1.7 | 0.00 | 0.00 | 0.00 | 81 | 1017.5 |
| 20260902013000 | 68 | 322 | 1.7 | 2.6 | 0.00 | 0.00 | 0.00 | 81 | 1017.5 |
| 20260902012500 | 68 | 329 | 1.7 | 5.2 | 0.00 | 0.00 | 0.00 | 80 | 1017.4 |
| 20260902012000 | 68 | 354 | 4.3 | 7.0 | 0.00 | 0.00 | 0.00 | 80 | 1017.4 |
| 20260902011500 | 68 | 5 | 3.5 | 7.0 | 0.00 | 0.00 | 0.00 | 80 | 1017.4 |
| 20260902011000 | 69 | 320 | 2.6 | 7.8 | 0.00 | 0.00 | 0.00 | 80 | 1017.4 |
| 20260902010500 | 69 | 340 | 1.7 | 6.1 | 0.00 | 0.00 | 0.00 | 80 | 1017.4 |
| 20260902010000 | 69 | 303 | 3.5 | 6.1 | 0.00 | 0.00 | 0.00 | 79 | 1017.4 |
| 20260902005500 | 69 | 305 | 2.6 | 6.1 | 0.00 | 0.00 | 0.00 | 79 | 1017.4 |
| 20260902005000 | 69 | 330 | 3.5 | 5.2 | 0.00 | 0.00 | 0.00 | 78 | 1017.3 |
| 20260902004500 | 70 | 358 | 2.6 | 2.6 | 0.00 | 0.00 | 0.00 | 78 | 1017.3 |
| 20260902004000 | 70 | 337 | 1.7 | 2.6 | 0.00 | 0.00 | 0.00 | 77 | 1017.3 |
| 20260902003500 | 70 | 300 | 2.6 | 4.3 | 0.00 | 0.00 | 0.00 | 77 | 1017.3 |
| 20260902003000 | 70 | 295 | 2.6 | 2.6 | 0.00 | 0.00 | 0.00 | 77 | 1017.1 |
| 20260902002501 | 70 | 327 | 3.5 | 6.1 | 0.00 | 0.00 | 0.00 | 76 | 1017.1 |
| 20260902002000 | 71 | 329 | 4.3 | 7.0 | 0.00 | 0.00 | 0.00 | 76 | 1017.1 |
| 20260902001500 | 71 | 358 | 1.7 | 2.6 | 0.00 | 0.00 | 0.00 | 76 | 1017.1 |
| 20260902001000 | 71 | 6 | 2.6 | 2.6 | 0.00 | 0.00 | 0.00 | 75 | 1017.2 |
| 20260902000500 | 71 | 5 | 2.6 | 4.3 | 0.00 | 0.00 | 0.00 | 75 | 1017.2 |
| 20260902000001 | 71 | 346 | 0.9 | 2.6 | 0.00 | 0.00 | 0.00 | 74 | 1017.2 |
| 20260901235500 | 72 | 325 | 0.9 | 1.7 | 0.00 | 0.00 | 0.00 | 74 | 1017.2 |
| 20260901235000 | 72 | 338 | 2.6 | 2.6 | 0.00 | 0.00 | 0.00 | 73 | 1017.2 |
| 20260901234500 | 72 | 355 | 1.7 | 2.6 | 0.00 | 0.00 | 0.00 | 73 | 1017.2 |
| 20260901234000 | 72 | 347 | 1.7 | 4.3 | 0.00 | 0.00 | 0.00 | 73 | 1017.2 |
| 20260901233500 | 72 | 346 | 3.5 | 5.2 | 0.00 | 0.00 | 0.00 | 72 | 1017.1 |
| 20260901233000 | 73 | 349 | 2.6 | 4.3 | 0.00 | 0.00 | 0.00 | 72 | 1017.1 |
| 20260901232500 | 73 | 327 | 0.9 | 4.3 | 0.00 | 0.00 | 0.00 | 71 | 1017.2 |
| 20260901232000 | 73 | 337 | 0.9 | 1.7 | 0.00 | 0.00 | 0.00 | 71 | 1017.1 |
| 20260901231500 | 73 | 358 | 4.3 | 5.2 | 0.00 | 0.00 | 0.00 | 71 | 1017.1 |
| 20260901231000 | 74 | 348 | 5.2 | 6.1 | 0.00 | 0.00 | 0.00 | 71 | 1017.1 |
| 20260901230500 | 74 | 327 | 1.7 | 6.1 | 0.00 | 0.00 | 0.00 | 70 | 1017.0 |
| 20260901230000 | 74 | 329 | 4.3 | 7.8 | 0.00 | 0.00 | 0.00 | 70 | 1017.1 |
| 20260901225500 | 74 | 339 | 3.5 | 4.3 | 0.00 | 0.00 | 0.00 | 70 | 1017.0 |
| 20260901225000 | 74 | 3 | 2.6 | 4.3 | 0.00 | 0.00 | 0.00 | 70 | 1017.0 |
| 20260901224501 | 74 | 301 | 2.6 | 4.3 | 0.00 | 0.00 | 0.00 | 70 | 1017.0 |
| 20260901224000 | 74 | 349 | 1.7 | 2.6 | 0.00 | 0.00 | 0.00 | 70 | 1017.0 |
| 20260901223500 | 74 | 326 | 0.0 | 0.9 | 0.00 | 0.00 | 0.00 | 70 | 1017.0 |
| 20260901223000 | 74 | 333 | 0.9 | 0.9 | 0.00 | 0.00 | 0.00 | 70 | 1017.1 |
| 20260901222500 | 74 | 285 | 0.9 | 1.7 | 0.00 | 0.00 | 0.00 | 70 | 1017.2 |
| 20260901222000 | 74 | 344 | 0.9 | 2.6 | 0.00 | 0.00 | 0.00 | 70 | 1017.2 |
| 20260901221500 | 74 | 310 | 2.6 | 2.6 | 0.00 | 0.00 | 0.00 | 70 | 1017.1 |
| 20260901221000 | 74 | 333 | 1.7 | 2.6 | 0.00 | 0.00 | 0.00 | 69 | 1017.1 |
| 20260901220500 | 74 | 317 | 1.7 | 4.3 | 0.00 | 0.00 | 0.00 | 70 | 1017.1 |
| 20260901220000 | 74 | 311 | 1.7 | 2.6 | 0.00 | 0.00 | 0.00 | 69 | 1017.2 |
| 20260901215501 | 74 | 320 | 0.9 | 1.7 | 0.00 | 0.00 | 0.00 | 70 | 1017.2 |
| 20260901215000 | 74 | 312 | 0.9 | 0.9 | 0.00 | 0.00 | 0.00 | 70 | 1017.2 |
| 20260901214500 | 74 | 313 | 0.0 | 0.0 | 0.00 | 0.00 | 0.00 | 69 | 1017.3 |
| 20260901214001 | 74 | 313 | 0.0 | 0.9 | 0.00 | 0.00 | 0.00 | 69 | 1017.2 |
| 20260901213501 | 74 | 338 | 0.9 | 1.7 | 0.00 | 0.00 | 0.00 | 69 | 1017.1 |
| 20260901213001 | 74 | 347 | 0.0 | 0.9 | 0.00 | 0.00 | 0.00 | 69 | 1017.1 |
| 20260901212500 | 74 | 308 | 0.9 | 1.7 | 0.00 | 0.00 | 0.00 | 69 | 1017.0 |
| 20260901212000 | 74 | 308 | 1.7 | 1.7 | 0.00 | 0.00 | 0.00 | 69 | 1016.9 |
| 20260901211501 | 74 | 300 | 0.9 | 1.7 | 0.00 | 0.00 | 0.00 | 69 | 1016.9 |
| 20260901211000 | 74 | 308 | 1.7 | 1.7 | 0.00 | 0.00 | 0.00 | 69 | 1016.8 |
| 20260901210500 | 75 | 302 | 0.0 | 0.9 | 0.00 | 0.00 | 0.00 | 68 | 1016.8 |
| 20260901210000 | 75 | 301 | 0.0 | 0.9 | 0.00 | 0.00 | 0.00 | 68 | 1016.8 |
| 20260901205501 | 75 | 301 | 0.9 | 1.7 | 0.00 | 0.00 | 0.00 | 67 | 1016.7 |
| 20260901205000 | 75 | 304 | 0.9 | 1.7 | 0.00 | 0.00 | 0.00 | 67 | 1016.7 |